Time,TemperatureF,DewpointF,PressureIn,WindDirection,WindDirectionDegrees,WindSpeedMPH,WindSpeedGustMPH,Humidity,HourlyPrecipIn,Conditions,Clouds,dailyrainin,SoftwareType,DateUTC
2013-02-03 00:02:00,38.0,28.0,30.21,NW,319,2.0,7.0,68,0.00,,,0.00,,2013-02-03 06:02:00,
2013-02-03 00:11:00,38.0,28.0,30.21,NW,319,2.0,7.0,68,0.00,,,0.00,,2013-02-03 06:11:00,
2013-02-03 00:21:00,37.0,28.0,30.21,NW,304,2.0,6.0,69,0.00,,,0.00,,2013-02-03 06:21:00,
2013-02-03 00:32:00,37.0,28.0,30.22,WNW,291,8.0,11.0,69,0.00,,,0.00,,2013-02-03 06:32:00,
2013-02-03 00:41:00,37.0,28.0,30.22,WNW,291,8.0,11.0,69,0.00,,,0.00,,2013-02-03 06:41:00,
2013-02-03 00:52:00,37.0,28.0,30.22,NW,312,5.0,10.0,69,0.00,,,0.00,,2013-02-03 06:52:00,
2013-02-03 01:01:00,37.0,28.0,30.23,NW,311,5.0,10.0,71,0.00,,,0.00,,2013-02-03 07:01:00,
2013-02-03 01:11:00,37.0,28.0,30.23,NW,311,5.0,10.0,71,0.00,,,0.00,,2013-02-03 07:11:00,
2013-02-03 01:21:00,36.0,28.0,30.23,NNW,331,5.0,8.0,71,0.00,,,0.00,,2013-02-03 07:21:00,
2013-02-03 01:31:00,37.0,28.0,30.23,NW,321,8.0,14.0,70,0.00,,,0.00,,2013-02-03 07:31:00,
2013-02-03 01:41:00,37.0,28.0,30.23,NW,321,8.0,14.0,70,0.00,,,0.00,,2013-02-03 07:41:00,
2013-02-03 01:52:00,37.0,28.0,30.24,NW,318,6.0,12.0,69,0.00,,,0.00,,2013-02-03 07:52:00,
2013-02-03 02:01:00,36.0,26.0,30.24,WNW,298,6.0,10.0,68,0.00,,,0.00,,2013-02-03 08:01:00,
2013-02-03 02:11:00,36.0,26.0,30.24,WNW,298,6.0,10.0,68,0.00,,,0.00,,2013-02-03 08:11:00,
2013-02-03 02:22:00,35.0,26.0,30.24,NW,317,4.0,9.0,69,0.00,,,0.00,,2013-02-03 08:22:00,
2013-02-03 02:32:00,35.0,26.0,30.24,NW,317,7.0,12.0,69,0.00,,,0.00,,2013-02-03 08:32:00,
2013-02-03 02:41:00,35.0,26.0,30.24,NW,317,7.0,12.0,69,0.00,,,0.00,,2013-02-03 08:41:00,
2013-02-03 02:52:00,36.0,26.0,30.24,NW,308,7.0,11.0,68,0.00,,,0.00,,2013-02-03 08:52:00,
2013-02-03 03:02:00,36.0,26.0,30.25,North,9,8.0,13.0,68,0.00,,,0.00,,2013-02-03 09:02:00,
2013-02-03 03:11:00,36.0,26.0,30.25,North,9,8.0,13.0,68,0.00,,,0.00,,2013-02-03 09:11:00,
2013-02-03 03:21:00,36.0,26.0,30.26,NNW,336,5.0,11.0,68,0.00,,,0.00,,2013-02-03 09:21:00,
2013-02-03 03:31:00,35.0,26.0,30.26,NNW,329,5.0,10.0,70,0.00,,,0.00,,2013-02-03 09:31:00,
2013-02-03 03:41:00,35.0,26.0,30.26,NNW,329,5.0,10.0,70,0.00,,,0.00,,2013-02-03 09:41:00,
2013-02-03 03:52:00,34.0,26.0,30.25,NNW,348,4.0,7.0,72,0.00,,,0.00,,2013-02-03 09:52:00,
2013-02-03 04:01:00,33.0,26.0,30.25,NW,315,6.0,9.0,74,0.00,,,0.00,,2013-02-03 10:01:00,
2013-02-03 04:11:00,33.0,26.0,30.25,NW,315,6.0,9.0,74,0.00,,,0.00,,2013-02-03 10:11:00,
2013-02-03 04:21:00,34.0,27.0,30.25,NNW,333,6.0,10.0,74,0.00,,,0.00,,2013-02-03 10:21:00,
2013-02-03 04:31:00,33.0,26.0,30.25,NNW,343,2.0,8.0,75,0.00,,,0.00,,2013-02-03 10:31:00,
2013-02-03 04:42:00,33.0,26.0,30.25,NNW,343,2.0,8.0,75,0.00,,,0.00,,2013-02-03 10:42:00,
2013-02-03 04:52:00,33.0,26.0,30.24,North,355,4.0,9.0,75,0.00,,,0.00,,2013-02-03 10:52:00,
2013-02-03 05:02:00,33.0,26.0,30.25,North,355,3.0,7.0,75,0.00,,,0.00,,2013-02-03 11:02:00,
2013-02-03 05:11:00,33.0,26.0,30.25,North,355,3.0,7.0,75,0.00,,,0.00,,2013-02-03 11:11:00,
2013-02-03 05:22:00,32.0,25.0,30.26,WNW,299,6.0,9.0,76,0.00,,,0.00,,2013-02-03 11:22:00,
2013-02-03 05:32:00,33.0,26.0,30.26,WNW,302,3.0,9.0,75,0.00,,,0.00,,2013-02-03 11:32:00,
2013-02-03 05:41:00,33.0,26.0,30.26,WNW,302,3.0,9.0,75,0.00,,,0.00,,2013-02-03 11:41:00,
2013-02-03 05:52:00,32.0,25.0,30.26,NW,305,2.0,6.0,76,0.00,,,0.00,,2013-02-03 11:52:00,
2013-02-03 06:02:00,31.0,25.0,30.25,West,267,4.0,6.0,77,0.00,,,0.00,,2013-02-03 12:02:00,
2013-02-03 06:11:00,31.0,25.0,30.25,West,267,4.0,6.0,77,0.00,,,0.00,,2013-02-03 12:11:00,
2013-02-03 06:22:00,29.0,24.0,30.26,West,265,4.0,5.0,82,0.00,,,0.00,,2013-02-03 12:22:00,
2013-02-03 06:32:00,28.0,24.0,30.26,West,261,4.0,5.0,83,0.00,,,0.00,,2013-02-03 12:32:00,
2013-02-03 06:42:00,28.0,24.0,30.26,West,261,4.0,5.0,83,0.00,,,0.00,,2013-02-03 12:42:00,
2013-02-03 06:53:00,27.0,23.0,30.26,WSW,254,4.0,5.0,85,0.00,,,0.00,,2013-02-03 12:53:00,
2013-02-03 07:03:00,27.0,23.0,30.27,WSW,242,5.0,6.0,85,0.00,,,0.00,,2013-02-03 13:03:00,
2013-02-03 07:11:00,27.0,23.0,30.27,WSW,242,5.0,6.0,85,0.00,,,0.00,,2013-02-03 13:11:00,
2013-02-03 07:21:00,27.0,23.0,30.27,WSW,246,2.0,5.0,86,0.00,,,0.00,,2013-02-03 13:21:00,
2013-02-03 07:32:00,27.0,23.0,30.27,WSW,246,0.0,0.0,86,0.00,,,0.00,,2013-02-03 13:32:00,
2013-02-03 07:42:00,27.0,23.0,30.27,WSW,246,0.0,0.0,86,0.00,,,0.00,,2013-02-03 13:42:00,
2013-02-03 07:52:00,26.0,22.0,30.27,WSW,248,0.0,0.0,85,0.00,,,0.00,,2013-02-03 13:52:00,
2013-02-03 08:02:00,24.0,21.0,30.27,WSW,252,0.0,0.0,88,0.00,,,0.00,,2013-02-03 14:02:00,
2013-02-03 08:11:00,24.0,21.0,30.27,WSW,252,0.0,0.0,88,0.00,,,0.00,,2013-02-03 14:11:00,
2013-02-03 08:21:00,25.0,22.0,30.26,WSW,252,0.0,0.0,90,0.00,,,0.00,,2013-02-03 14:21:00,
2013-02-03 08:32:00,26.0,23.0,30.26,SE,131,0.0,0.0,89,0.00,,,0.00,,2013-02-03 14:32:00,
2013-02-03 08:42:00,26.0,23.0,30.26,SE,131,0.0,0.0,89,0.00,,,0.00,,2013-02-03 14:42:00,
2013-02-03 08:52:00,28.0,25.0,30.26,SSE,167,0.0,0.0,88,0.00,,,0.00,,2013-02-03 14:52:00,
2013-02-03 09:03:00,29.0,26.0,30.25,SW,220,0.0,0.0,87,0.00,,,0.00,,2013-02-03 15:03:00,
2013-02-03 09:11:00,29.0,26.0,30.25,SW,220,0.0,0.0,87,0.00,,,0.00,,2013-02-03 15:11:00,
2013-02-03 09:22:00,32.0,27.0,30.25,NE,53,0.0,0.0,82,0.00,,,0.00,,2013-02-03 15:22:00,
2013-02-03 09:32:00,34.0,27.0,30.24,West,264,0.0,0.0,75,0.00,,,0.00,,2013-02-03 15:32:00,
2013-02-03 09:42:00,34.0,27.0,30.24,West,264,0.0,0.0,75,0.00,,,0.00,,2013-02-03 15:42:00,
2013-02-03 09:52:00,36.0,27.0,30.24,East,96,0.0,0.0,70,0.00,,,0.00,,2013-02-03 15:52:00,
2013-02-03 10:02:00,37.0,27.0,30.23,NE,38,0.0,0.0,66,0.00,,,0.00,,2013-02-03 16:02:00,
2013-02-03 10:11:00,37.0,27.0,30.23,NE,38,0.0,0.0,66,0.00,,,0.00,,2013-02-03 16:11:00,
2013-02-03 10:22:00,38.0,27.0,30.22,NE,49,3.0,5.0,64,0.00,,,0.00,,2013-02-03 16:22:00,
2013-02-03 10:32:00,38.0,26.0,30.22,ESE,121,2.0,5.0,61,0.00,,,0.00,,2013-02-03 16:32:00,
2013-02-03 10:41:00,38.0,26.0,30.22,ESE,121,2.0,5.0,61,0.00,,,0.00,,2013-02-03 16:41:00,
2013-02-03 10:52:00,39.0,25.0,30.21,South,178,5.0,8.0,57,0.00,,,0.00,,2013-02-03 16:52:00,
2013-02-03 11:02:00,39.0,23.0,30.21,SSE,161,6.0,9.0,53,0.00,,,0.00,,2013-02-03 17:02:00,
2013-02-03 11:11:00,39.0,23.0,30.21,SSE,161,6.0,9.0,53,0.00,,,0.00,,2013-02-03 17:11:00,
2013-02-03 11:21:00,40.0,25.0,30.21,SSW,197,6.0,11.0,55,0.00,,,0.00,,2013-02-03 17:21:00,
2013-02-03 11:32:00,40.0,26.0,30.20,South,174,7.0,12.0,56,0.00,,,0.00,,2013-02-03 17:32:00,
2013-02-03 11:42:00,40.0,26.0,30.20,South,174,7.0,12.0,56,0.00,,,0.00,,2013-02-03 17:42:00,
2013-02-03 11:52:00,41.0,25.0,30.19,South,183,8.0,12.0,53,0.00,,,0.00,,2013-02-03 17:52:00,
2013-02-03 12:02:00,41.0,27.0,30.18,South,188,10.0,15.0,56,0.00,,,0.00,,2013-02-03 18:02:00,
2013-02-03 12:12:00,41.0,27.0,30.18,South,188,10.0,15.0,56,0.00,,,0.00,,2013-02-03 18:12:00,
2013-02-03 12:23:00,42.0,27.0,30.17,South,169,11.0,15.0,54,0.00,,,0.00,,2013-02-03 18:23:00,
2013-02-03 12:32:00,42.0,27.0,30.16,SSW,206,9.0,16.0,54,0.00,,,0.00,,2013-02-03 18:32:00,
2013-02-03 12:42:00,42.0,27.0,30.16,SSW,206,9.0,16.0,54,0.00,,,0.00,,2013-02-03 18:42:00,
2013-02-03 12:52:00,43.0,26.0,30.15,SSW,210,11.0,18.0,50,0.00,,,0.00,,2013-02-03 18:52:00,
2013-02-03 13:02:00,44.0,27.0,30.14,South,186,9.0,18.0,51,0.00,,,0.00,,2013-02-03 19:02:00,
2013-02-03 13:11:00,44.0,27.0,30.14,South,186,9.0,18.0,51,0.00,,,0.00,,2013-02-03 19:11:00,
2013-02-03 13:22:00,44.0,27.0,30.12,SSW,210,12.0,18.0,51,0.00,,,0.00,,2013-02-03 19:22:00,
2013-02-03 13:32:00,44.0,26.0,30.11,SSW,197,11.0,19.0,49,0.00,,,0.00,,2013-02-03 19:32:00,
2013-02-03 13:41:00,44.0,26.0,30.11,SSW,197,11.0,19.0,49,0.00,,,0.00,,2013-02-03 19:41:00,
2013-02-03 13:52:00,45.0,25.0,30.10,SSW,209,11.0,19.0,45,0.00,,,0.00,,2013-02-03 19:52:00,
2013-02-03 14:01:00,46.0,27.0,30.09,South,189,10.0,16.0,47,0.00,,,0.00,,2013-02-03 20:01:00,
2013-02-03 14:12:00,46.0,27.0,30.09,South,189,10.0,16.0,47,0.00,,,0.00,,2013-02-03 20:12:00,
2013-02-03 14:21:00,46.0,27.0,30.08,SSW,207,11.0,16.0,47,0.00,,,0.00,,2013-02-03 20:21:00,
2013-02-03 14:32:00,46.0,27.0,30.06,SW,219,9.0,12.0,47,0.00,,,0.00,,2013-02-03 20:32:00,
2013-02-03 14:42:00,46.0,27.0,30.06,SW,219,9.0,12.0,47,0.00,,,0.00,,2013-02-03 20:42:00,
2013-02-03 14:52:00,47.0,27.0,30.05,WSW,237,10.0,16.0,46,0.00,,,0.00,,2013-02-03 20:52:00,
2013-02-03 15:03:00,47.0,28.0,30.03,SW,228,10.0,18.0,47,0.00,,,0.00,,2013-02-03 21:03:00,
2013-02-03 15:11:00,47.0,28.0,30.03,SW,228,10.0,18.0,47,0.00,,,0.00,,2013-02-03 21:11:00,
2013-02-03 15:21:00,48.0,29.0,30.02,SW,216,11.0,19.0,47,0.00,,,0.00,,2013-02-03 21:21:00,
2013-02-03 15:32:00,48.0,28.0,30.01,SSW,209,15.0,23.0,46,0.00,,,0.00,,2013-02-03 21:32:00,
2013-02-03 15:42:00,48.0,28.0,30.01,SSW,209,15.0,23.0,46,0.00,,,0.00,,2013-02-03 21:42:00,
2013-02-03 15:52:00,49.0,30.0,30.01,WSW,237,11.0,19.0,47,0.00,,,0.00,,2013-02-03 21:52:00,
2013-02-03 16:01:00,49.0,28.0,30.00,SW,219,13.0,21.0,44,0.00,,,0.00,,2013-02-03 22:01:00,
2013-02-03 16:11:00,49.0,28.0,30.00,SW,219,13.0,21.0,44,0.00,,,0.00,,2013-02-03 22:11:00,
2013-02-03 16:21:00,49.0,29.0,29.99,SW,216,7.0,16.0,46,0.00,,,0.00,,2013-02-03 22:21:00,
2013-02-03 16:32:00,49.0,29.0,29.98,SW,217,10.0,14.0,45,0.00,,,0.00,,2013-02-03 22:32:00,
2013-02-03 16:41:00,49.0,29.0,29.98,SW,217,10.0,14.0,45,0.00,,,0.00,,2013-02-03 22:41:00,
2013-02-03 16:52:00,49.0,29.0,29.97,SSW,211,9.0,12.0,45,0.00,,,0.00,,2013-02-03 22:52:00,
2013-02-03 17:01:00,48.0,29.0,29.96,SW,218,9.0,12.0,47,0.00,,,0.00,,2013-02-03 23:01:00,
2013-02-03 17:12:00,48.0,29.0,29.96,SW,218,9.0,12.0,47,0.00,,,0.00,,2013-02-03 23:12:00,
2013-02-03 17:22:00,47.0,29.0,29.95,SW,219,6.0,9.0,49,0.00,,,0.00,,2013-02-03 23:22:00,
2013-02-03 17:32:00,47.0,29.0,29.94,South,189,5.0,8.0,49,0.00,,,0.00,,2013-02-03 23:32:00,
2013-02-03 17:41:00,47.0,29.0,29.94,South,189,5.0,8.0,49,0.00,,,0.00,,2013-02-03 23:41:00,
2013-02-03 17:52:00,46.0,28.0,29.94,SSW,202,5.0,7.0,50,0.00,,,0.00,,2013-02-03 23:52:00,
2013-02-03 18:01:00,45.0,28.0,29.93,SSW,196,4.0,6.0,52,0.00,,,0.00,,2013-02-04 00:01:00,
2013-02-03 18:11:00,45.0,28.0,29.93,SSW,196,4.0,6.0,52,0.00,,,0.00,,2013-02-04 00:11:00,
2013-02-03 18:22:00,44.0,28.0,29.93,SSW,209,3.0,5.0,53,0.00,,,0.00,,2013-02-04 00:22:00,
2013-02-03 18:31:00,43.0,28.0,29.93,SW,216,3.0,5.0,55,0.00,,,0.00,,2013-02-04 00:31:00,
2013-02-03 18:41:00,43.0,28.0,29.93,SW,216,3.0,5.0,55,0.00,,,0.00,,2013-02-04 00:41:00,
2013-02-03 18:52:00,42.0,28.0,29.92,SW,217,3.0,5.0,57,0.00,,,0.00,,2013-02-04 00:52:00,
2013-02-03 19:01:00,42.0,28.0,29.91,SW,214,5.0,8.0,58,0.00,,,0.00,,2013-02-04 01:01:00,
2013-02-03 19:11:00,42.0,28.0,29.91,SW,214,5.0,8.0,58,0.00,,,0.00,,2013-02-04 01:11:00,
2013-02-03 19:21:00,43.0,29.0,29.91,SW,215,4.0,7.0,57,0.00,,,0.00,,2013-02-04 01:21:00,
2013-02-03 19:31:00,43.0,28.0,29.91,SSW,213,2.0,5.0,56,0.00,,,0.00,,2013-02-04 01:31:00,
2013-02-03 19:41:00,43.0,28.0,29.91,SSW,213,2.0,5.0,56,0.00,,,0.00,,2013-02-04 01:41:00,
2013-02-03 19:52:00,43.0,28.0,29.90,SSW,212,2.0,5.0,55,0.00,,,0.00,,2013-02-04 01:52:00,
2013-02-03 20:02:00,42.0,28.0,29.90,SSW,202,5.0,7.0,57,0.00,,,0.00,,2013-02-04 02:02:00,
2013-02-03 20:11:00,42.0,28.0,29.90,SSW,202,5.0,7.0,57,0.00,,,0.00,,2013-02-04 02:11:00,
2013-02-03 20:21:00,42.0,28.0,29.90,SSW,211,4.0,6.0,57,0.00,,,0.00,,2013-02-04 02:21:00,
2013-02-03 20:31:00,42.0,28.0,29.89,SSW,211,4.0,6.0,58,0.00,,,0.00,,2013-02-04 02:31:00,
2013-02-03 20:41:00,42.0,28.0,29.89,SSW,211,4.0,6.0,58,0.00,,,0.00,,2013-02-04 02:41:00,
2013-02-03 20:52:00,42.0,29.0,29.88,SSW,211,6.0,8.0,59,0.00,,,0.00,,2013-02-04 02:52:00,
2013-02-03 21:02:00,43.0,29.0,29.87,SSW,200,6.0,9.0,57,0.00,,,0.00,,2013-02-04 03:02:00,
2013-02-03 21:11:00,43.0,29.0,29.87,SW,214,6.0,10.0,57,0.00,,,0.00,,2013-02-04 03:11:00,
2013-02-03 21:21:00,43.0,29.0,29.87,SW,214,6.0,10.0,57,0.00,,,0.00,,2013-02-04 03:21:00,
2013-02-03 21:32:00,43.0,29.0,29.87,SSW,206,8.0,11.0,57,0.00,,,0.00,,2013-02-04 03:32:00,
2013-02-03 21:41:00,43.0,29.0,29.87,SSW,206,8.0,11.0,57,0.00,,,0.00,,2013-02-04 03:41:00,
2013-02-03 21:52:00,42.0,28.0,29.86,SSW,211,8.0,11.0,57,0.00,,,0.00,,2013-02-04 03:52:00,
2013-02-03 22:01:00,42.0,28.0,29.86,SSW,194,8.0,14.0,58,0.00,,,0.00,,2013-02-04 04:01:00,
2013-02-03 22:11:00,42.0,28.0,29.86,SSW,194,8.0,14.0,58,0.00,,,0.00,,2013-02-04 04:11:00,
2013-02-03 22:21:00,42.0,29.0,29.85,SSW,212,7.0,9.0,59,0.00,,,0.00,,2013-02-04 04:21:00,
2013-02-03 22:32:00,43.0,29.0,29.84,SSW,213,8.0,12.0,57,0.00,,,0.00,,2013-02-04 04:32:00,
2013-02-03 22:41:00,43.0,29.0,29.84,SSW,213,8.0,12.0,57,0.00,,,0.00,,2013-02-04 04:41:00,
2013-02-03 22:52:00,43.0,28.0,29.83,South,188,9.0,12.0,55,0.00,,,0.00,,2013-02-04 04:52:00,
2013-02-03 23:03:00,43.0,28.0,29.83,SSW,211,8.0,12.0,55,0.00,,,0.00,,2013-02-04 05:03:00,
2013-02-03 23:11:00,43.0,28.0,29.83,SSW,211,8.0,12.0,55,0.00,,,0.00,,2013-02-04 05:11:00,
2013-02-03 23:22:00,43.0,29.0,29.83,SW,216,7.0,10.0,57,0.00,,,0.00,,2013-02-04 05:22:00,
2013-02-03 23:33:00,43.0,28.0,29.84,SW,228,5.0,10.0,56,0.00,,,0.00,,2013-02-04 05:33:00,
2013-02-03 23:42:00,43.0,28.0,29.84,SW,228,5.0,10.0,56,0.00,,,0.00,,2013-02-04 05:42:00,
2013-02-03 23:52:00,42.0,28.0,29.83,SW,227,4.0,8.0,57,0.00,,,0.00,,2013-02-04 05:52:00,